DELTA 1 DEB, 7192

Orbit data source: Space-Track

DELTA 1 DEB, 7192 is space debris in LEO originally from a launch on Tue, 06 Nov 1973 UTC launched from the Air Force Western Test Range (AFWTR). Debris objects in space refer to the collection of defunct objects orbiting the Earth. Examples of debris include non-operational satellites, rocket bodies, and fragments generated from explosions, collisions, or faulty payload assembly.

Loading next visibility...
Identifier
7192, 1973-086FA
Orbit
LEO
Country
Flag of USUS
Related business
Manufacturer
Unknown
Mission
Spacecraft
Bus & Motor
Unknown
Mass
Unknown
Launch date (UTC)
1973-11-06 (53 years ago)
Launch vehicle
Unknown
Launch site
Air Force Western Test Range (AFWTR)
Object type
Payload
Rocket body
Debris
Shape & HBR
Unknown shape, 0.2 m
Radar Cross Section
Medium (>0.1 m² and <1 m²)

Expand to show TLE details & history
Last TLE update: 8 hours ago

TLE from 8 hours ago
0 DELTA 1 DEB
1 07192U 73086FA  26263.59589333 -.00000029  00000-0  77598-4 0  9999
2 07192 102.2141  28.2542 0441755  92.3730 337.7362 11.59925700238187
Epoch: 2026-09-20T14:18Z
TLE epoch observation values (Epoch: 2026-09-20T14:18:05.183Z)
Latitude
65.1463°
Longitude
146.53268°
Altitude
1,541.855 km
Speed
7.244 km/s
True Right ascension
00h 02m 10s
True Declination
65° 01' 40"
Sunlit
Object was in daylight at epoch
Visualization orbit readout
Latitude
Unknown
Longitude
Unknown
Altitude
Unknown
Speed
Unknown
Apparent Right ascension
Unknown
Apparent Declination
Unknown
Sunlit
N/A
Visualization observer readout
Local Sidereal Time
15:00:14
Azimuth
Unknown
Elevation
Unknown
Doppler factor
Unknown
Orbital elements
Apogee altitude
2,227.175 km
Perigee altitude
1,499.053 km
Semi-major axis
8,241.251 km
Eccentricity
0.04418
Inclination
102.2141°
RAAN
28.2542°
Arg. of periapsis
92.373°
True anomaly
335.71567°
Mean anomaly
337.7362°
Eccentric anomaly
336.73653°
Mean motion
2.90104 °/min
Orbital period
124.09 mins
BSTAR
0.000077598
Loading maneuver chart data...
Computing Atmospheric mass density...
Loading historical data...
Loading historical data...
Loading historical data...
Loading historical data...
Loading historical data...
Loading historical data...
Loading historical data...

Documentation

Showing up to 5 results
|